Location: Newark
(39.1833°N, 3.3000°W)
Time: 18:53:41
(UTC+00:00)

Tiangong 2 - Pass Details

Date: 25 March 2019
Orbit: 185 x 376 km, 42.8° (Epoch: 19 July)

Event Time Altitude Azimuth Distance (km) Brightness Sun altitude
Exits shadow 05:01:09 24° 200° (SSW) 637 1.9 -13.9°
Drops below altitude 10° 05:02:53 10° 153° (SSE) 1,053 3.4 -13.6°
Sets 05:04:44 0° 138° (SE) 1,777 4.8 -13.2°
